TimeEST,TemperatureF,Dew PointF,Humidity,Sea Level PressureIn,VisibilityMPH,Wind Direction,Wind SpeedMPH,Gust SpeedMPH,PrecipitationIn,Events,Conditions,WindDirDegrees,DateUTC
12:15 AM,31.5,26.4,82,30.24,10.0,Calm,Calm,-,N/A,,Clear,0,2012-12-15 05:15:00
12:35 AM,31.1,26.4,83,30.25,10.0,Calm,Calm,-,N/A,,Clear,0,2012-12-15 05:35:00
12:55 AM,31.1,27.9,88,30.24,10.0,Calm,Calm,-,N/A,,Clear,0,2012-12-15 05:55:00
1:15 AM,30.2,27.1,88,30.24,10.0,Calm,Calm,-,N/A,,Clear,0,2012-12-15 06:15:00
1:35 AM,31.1,27.0,85,30.25,10.0,Calm,Calm,-,N/A,,Clear,0,2012-12-15 06:35:00
1:55 AM,31.5,27.3,85,30.25,10.0,Calm,Calm,-,N/A,,Clear,0,2012-12-15 06:55:00
2:15 AM,31.3,27.9,87,30.22,10.0,Calm,Calm,-,N/A,,Clear,0,2012-12-15 07:15:00
2:35 AM,32.0,28.2,86,30.22,10.0,Calm,Calm,-,N/A,,Clear,0,2012-12-15 07:35:00
2:55 AM,32.0,28.0,85,30.22,10.0,Calm,Calm,-,N/A,,Clear,0,2012-12-15 07:55:00
3:15 AM,31.1,28.4,90,30.21,10.0,Calm,Calm,-,N/A,,Clear,0,2012-12-15 08:15:00
3:35 AM,31.5,28.4,88,30.22,10.0,Calm,Calm,-,N/A,,Clear,0,2012-12-15 08:35:00
3:55 AM,32.2,29.1,88,30.21,10.0,Calm,Calm,-,N/A,,Clear,0,2012-12-15 08:55:00
4:15 AM,32.0,29.7,91,30.21,10.0,Calm,Calm,-,N/A,,Clear,0,2012-12-15 09:15:00
4:35 AM,32.0,29.3,90,30.21,10.0,Calm,Calm,-,N/A,,Clear,0,2012-12-15 09:35:00
4:55 AM,32.0,29.1,89,30.20,10.0,Calm,Calm,-,N/A,,Clear,0,2012-12-15 09:55:00
5:15 AM,31.8,29.1,90,30.21,10.0,Calm,Calm,-,N/A,,Clear,0,2012-12-15 10:15:00
5:35 AM,32.2,29.8,91,30.21,10.0,Calm,Calm,-,N/A,,Clear,0,2012-12-15 10:35:00
5:55 AM,32.7,29.8,89,30.23,10.0,Calm,Calm,-,N/A,,Clear,0,2012-12-15 10:55:00
6:15 AM,32.9,29.1,86,30.23,10.0,Calm,Calm,-,N/A,,Clear,0,2012-12-15 11:15:00
6:35 AM,32.0,29.7,91,30.24,10.0,Calm,Calm,-,N/A,,Clear,0,2012-12-15 11:35:00
6:55 AM,32.4,29.8,90,30.23,10.0,Calm,Calm,-,N/A,,Clear,0,2012-12-15 11:55:00
7:15 AM,32.7,29.5,88,30.23,10.0,Calm,Calm,-,N/A,,Clear,0,2012-12-15 12:15:00
7:35 AM,32.5,29.8,90,30.23,10.0,Calm,Calm,-,N/A,,Clear,0,2012-12-15 12:35:00
7:55 AM,32.9,30.0,89,30.23,10.0,Calm,Calm,-,N/A,,Clear,0,2012-12-15 12:55:00
8:15 AM,33.6,30.6,89,30.23,10.0,Calm,Calm,-,N/A,,Clear,0,2012-12-15 13:15:00
8:35 AM,34.7,32.0,90,30.23,10.0,Calm,Calm,-,N/A,,Clear,0,2012-12-15 13:35:00
8:55 AM,35.8,32.0,86,30.24,10.0,Calm,Calm,-,N/A,,Clear,0,2012-12-15 13:55:00
9:15 AM,37.0,32.0,82,30.24,10.0,Calm,Calm,-,N/A,,Clear,0,2012-12-15 14:15:00
9:35 AM,37.8,32.9,83,30.25,10.0,Calm,Calm,-,N/A,,Clear,0,2012-12-15 14:35:00
9:55 AM,39.4,32.4,76,30.26,7.0,Calm,Calm,-,N/A,,Clear,0,2012-12-15 14:55:00
10:15 AM,43.2,32.0,65,30.25,10.0,Calm,Calm,-,N/A,,Clear,0,2012-12-15 15:15:00
10:35 AM,45.7,32.5,60,30.25,10.0,Calm,Calm,-,N/A,,Clear,0,2012-12-15 15:35:00
10:55 AM,46.6,32.4,58,30.24,10.0,Calm,Calm,-,N/A,,Clear,0,2012-12-15 15:55:00
11:15 AM,49.8,32.0,50,30.24,10.0,Calm,Calm,-,N/A,,Clear,0,2012-12-15 16:15:00
11:35 AM,52.5,31.3,44,30.22,10.0,Calm,Calm,-,N/A,,Clear,0,2012-12-15 16:35:00
11:55 AM,53.6,30.2,41,30.21,10.0,SSE,4.6,-,N/A,,Clear,160,2012-12-15 16:55:00
12:15 PM,54.0,29.8,40,30.19,10.0,SSE,4.6,-,N/A,,Clear,160,2012-12-15 17:15:00
12:35 PM,55.8,29.1,36,30.18,10.0,South,5.8,-,N/A,,Clear,190,2012-12-15 17:35:00
12:55 PM,56.7,28.2,34,30.17,10.0,South,5.8,-,N/A,,Clear,190,2012-12-15 17:55:00
1:15 PM,56.3,28.2,34,30.16,10.0,SSE,4.6,-,N/A,,Clear,160,2012-12-15 18:15:00
1:35 PM,56.5,29.1,35,30.16,10.0,South,6.9,-,N/A,,Clear,170,2012-12-15 18:35:00
1:55 PM,56.3,29.3,36,30.15,10.0,South,6.9,-,N/A,,Clear,170,2012-12-15 18:55:00
2:15 PM,57.4,29.1,34,30.15,10.0,South,8.1,-,N/A,,Clear,190,2012-12-15 19:15:00
2:35 PM,58.1,28.8,33,30.14,10.0,SE,5.8,-,N/A,,Clear,140,2012-12-15 19:35:00
2:55 PM,57.2,28.4,33,30.14,10.0,SSE,5.8,-,N/A,,Clear,160,2012-12-15 19:55:00
3:15 PM,57.0,28.6,34,30.13,10.0,South,6.9,-,N/A,,Clear,170,2012-12-15 20:15:00
3:35 PM,56.1,28.8,35,30.13,10.0,SSE,5.8,-,N/A,,Clear,160,2012-12-15 20:35:00
3:55 PM,56.8,28.4,34,30.13,10.0,SSE,4.6,-,N/A,,Scattered Clouds,160,2012-12-15 20:55:00
4:15 PM,55.8,28.0,35,30.13,10.0,South,3.5,-,N/A,,Clear,180,2012-12-15 21:15:00
4:35 PM,55.2,28.2,36,30.13,10.0,SE,3.5,-,N/A,,Clear,130,2012-12-15 21:35:00
4:55 PM,54.5,27.5,35,30.13,10.0,SSE,3.5,-,N/A,,Clear,160,2012-12-15 21:55:00
5:15 PM,53.6,27.3,36,30.13,10.0,SSE,3.5,-,N/A,,Clear,150,2012-12-15 22:15:00
5:35 PM,53.1,27.3,37,30.12,10.0,Calm,Calm,-,N/A,,Mostly Cloudy,0,2012-12-15 22:35:00
5:55 PM,52.3,27.5,38,30.12,10.0,SSE,3.5,-,N/A,,Mostly Cloudy,160,2012-12-15 22:55:00
6:15 PM,52.2,26.6,37,30.12,10.0,SSE,3.5,-,N/A,,Clear,160,2012-12-15 23:15:00
6:35 PM,51.6,26.1,37,30.12,10.0,SSE,3.5,-,N/A,,Mostly Cloudy,160,2012-12-15 23:35:00
6:55 PM,50.9,25.5,37,30.12,10.0,Calm,Calm,-,N/A,,Scattered Clouds,0,2012-12-15 23:55:00
7:15 PM,50.9,26.1,38,30.12,10.0,Calm,Calm,-,N/A,,Scattered Clouds,0,2012-12-16 00:15:00
7:35 PM,49.6,26.1,40,30.12,10.0,Calm,Calm,-,N/A,,Clear,0,2012-12-16 00:35:00
7:55 PM,49.1,26.1,41,30.12,10.0,Calm,Calm,-,N/A,,Mostly Cloudy,0,2012-12-16 00:55:00
8:15 PM,49.3,26.2,41,30.12,10.0,Calm,Calm,-,N/A,,Scattered Clouds,0,2012-12-16 01:15:00
8:35 PM,49.3,27.5,43,30.12,10.0,Calm,Calm,-,N/A,,Scattered Clouds,0,2012-12-16 01:35:00
8:55 PM,48.4,28.0,45,30.12,10.0,Calm,Calm,-,N/A,,Clear,0,2012-12-16 01:55:00
9:15 PM,47.8,29.1,48,30.12,10.0,Calm,Calm,-,N/A,,Scattered Clouds,0,2012-12-16 02:15:00
9:35 PM,48.2,29.5,48,30.11,10.0,Calm,Calm,-,N/A,,Scattered Clouds,0,2012-12-16 02:35:00
9:55 PM,47.7,29.3,49,30.10,10.0,Calm,Calm,-,N/A,,Clear,0,2012-12-16 02:55:00
10:15 PM,46.6,29.7,52,30.10,10.0,Calm,Calm,-,N/A,,Clear,0,2012-12-16 03:15:00
10:35 PM,47.3,30.4,52,30.09,10.0,SSE,3.5,-,N/A,,Clear,160,2012-12-16 03:35:00
10:55 PM,46.4,30.6,54,30.09,10.0,Calm,Calm,-,N/A,,Clear,0,2012-12-16 03:55:00
11:15 PM,47.3,30.6,52,30.10,10.0,Calm,Calm,-,N/A,,Clear,0,2012-12-16 04:15:00
11:35 PM,45.7,30.9,56,30.08,10.0,Calm,Calm,-,N/A,,Clear,0,2012-12-16 04:35:00
11:55 PM,45.3,30.7,57,30.07,10.0,Calm,Calm,-,N/A,,Scattered Clouds,0,2012-12-16 04:55:00